Wetbulb
50.74 50.59 50.46 50.30 49.90 49.56 49.25 49.34 49.65 49.67 49.63 49.39 49.34 49.42 49.53 49.53 49.34 49.43 49.62 49.69 49.51 49.40 49.43 49.63 49.85 50.16 50.45 50.74 50.72 50.64 50.59 50.67 50.63 50.75 50.81 50.75 50.66 50.73 50.77 50.63 50.38 50.11 49.75 49.29 49.13 48.76 48.38 48.16 47.67 47.22 46.88 46.77 46.53 46.32 46.29 46.24 46.16 45.86 45.60 45.36 45.02 44.95 44.76 44.40 44.16 43.99 43.95 43.83 43.68
50.61 50.57 50.66 50.74 50.31 49.78 49.23 49.29 49.39 49.51 49.58 49.60 49.58 49.60 49.53 49.32 49.10 49.08 49.10 49.18 49.29 49.25 49.32 49.34 49.76 49.91 49.98 50.14 50.23 50.28 50.13 50.02 50.10 50.20 50.22 50.15 50.30 50.24 50.40 50.21 50.16 49.99 49.74 49.45 49.19 48.77 48.32 48.24 47.64 47.10 46.69 46.60 46.41 46.12 46.08 46.22 46.17 45.83 45.42 45.24 45.09 44.93 44.74 44.33 44.21 44.20 44.20 43.98 43.94
50.40 50.36 50.24 50.10 49.90 49.55 49.29 49.10 49.16 49.40 49.51 49.71 49.67 49.53 49.30 48.98 48.80 48.60 48.62 48.66 48.93 49.08 49.08 48.99 49.37 49.54 49.69 49.72 49.80 49.83 49.72 49.61 49.50 49.54 49.39 49.43 49.61 49.70 49.75 49.79 49.79 49.71 49.66 49.47 49.26 48.94 48.54 48.31 47.78 47.17 46.70 46.31 46.11 45.83 45.78 46.08 46.14 45.70 45.21 45.09 45.04 44.85 44.63 44.22 44.26 44.33 44.24 43.88 43.91
50.09 50.07 49.94 49.74 49.55 49.45 49.16 48.94 49.01 49.11 49.21 49.21 49.21 49.06 48.84 48.67 48.49 48.41 48.40 48.60 48.73 48.77 48.75 48.82 49.04 49.30 49.38 49.29 49.28 49.28 49.26 49.40 49.23 49.05 48.90 48.90 48.97 49.15 49.23 49.45 49.34 49.34 49.32 49.32 49.16 49.01 48.75 48.44 47.89 47.32 46.82 46.40 46.16 45.80 45.68 45.70 45.82 45.55 45.21 45.15 45.02 44.79 44.58 44.32 44.41 44.30 44.12 43.83 43.83
49.80 49.77 49.69 49.51 49.45 49.22 49.14 49.05 48.89 48.74 48.80 48.86 48.59 48.47 48.29 48.33 48.33 48.31 48.31 48.24 48.26 48.53 48.82 48.97 48.86 48.94 49.00 48.93 48.88 48.77 48.86 49.03 49.12 48.82 48.54 48.44 48.62 48.77 48.92 48.95 48.88 48.78 48.90 48.98 48.96 48.89 48.74 48.52 47.86 47.38 46.96 46.72 46.23 45.99 45.92 46.03 45.81 45.48 45.21 45.16 45.01 44.78 44.64 44.33 44.32 44.29 44.07 43.83 43.73
49.34 49.50 49.43 49.45 49.25 49.12 49.07 49.00 48.89 48.71 48.70 48.53 48.31 48.07 48.00 48.09 48.13 48.13 48.09 48.02 48.34 48.69 49.00 49.11 48.86 48.75 48.71 48.62 48.51 48.48 48.46 48.58 48.61 48.42 48.30 48.07 48.19 48.25 48.33 48.29 48.41 48.42 48.43 48.58 48.59 48.66 48.57 48.27 47.65 47.30 47.00 46.69 46.47 46.37 46.37 46.24 45.76 45.25 45.02 44.84 44.91 44.79 44.62 44.32 44.27 44.20 44.11 43.76 43.49
49.16 49.13 49.00 49.00 49.01 48.91 48.90 48.86 48.79 48.75 48.60 48.35 48.11 47.96 47.91 48.14 48.22 48.21 48.28 48.40 48.40 48.56 48.62 48.71 48.51 48.37 48.31 48.24 48.16 48.03 48.03 47.93 48.04 48.00 47.95 47.65 47.69 47.77 47.70 47.67 47.81 47.89 48.00 48.05 48.09 48.07 48.03 47.96 47.34 46.96 46.91 46.82 46.22 46.23 46.33 46.12 45.59 45.09 44.68 44.50 44.66 44.71 44.62 44.43 44.41 44.16 43.88 43.49 43.26
49.00 49.00 48.90 48.93 48.92 48.88 48.93 48.82 48.78 48.69 48.44 48.11 47.98 48.04 48.09 48.35 48.35 48.34 48.38 48.27 48.16 48.20 48.37 48.35 48.24 48.13 48.11 47.85 47.66 47.59 47.51 47.47 47.33 47.43 47.43 47.28 47.18 47.11 47.11 47.18 47.11 47.15 47.31 47.49 47.44 47.38 47.39 47.34 46.91 46.71 46.53 46.45 45.98 45.88 46.02 45.99 45.50 45.00 44.52 44.30 44.51 44.71 44.73 44.65 44.61 44.27 43.72 43.24 43.07
48.83 48.93 48.99 49.03 49.06 49.04 48.94 48.99 48.73 48.57 48.23 48.10 48.13 48.26 48.46 48.51 48.49 48.37 48.22 48.04 48.18 48.37 48.38 48.13 48.13 48.09 48.03 47.77 47.47 47.32 47.14 47.03 46.85 46.81 46.89 46.88 46.62 46.45 46.44 46.52 46.47 46.41 46.59 46.87 46.85 46.84 46.81 46.61 46.37 46.33 46.33 46.06 45.77 45.73 45.79 45.92 45.42 44.96 44.59 44.35 44.37 44.51 44.67 44.74 44.63 44.32 43.83 43.31 42.93
48.44 48.66 48.83 48.84 48.99 49.10 49.13 48.95 48.85 48.65 48.53 48.26 48.40 48.57 48.83 48.92 48.69 48.42 48.37 48.33 48.53 48.46 48.16 48.09 48.05 47.92 47.70 47.47 47.26 47.10 46.92 46.78 46.65 46.48 46.37 46.32 46.12 45.93 45.84 45.76 45.77 45.74 45.80 46.08 46.13 46.11 46.09 45.85 45.79 45.87 45.97 46.06 45.85 45.85 45.88 45.83 45.33 44.91 44.54 44.27 44.30 44.25 44.40 44.55 44.50 44.29 43.88 43.28 42.88
48.42 48.60 48.66 48.66 48.92 49.00 49.04 48.88 48.76 48.77 48.55 48.49 48.56 48.66 48.77 48.93 48.77 48.71 48.71 48.71 48.35 48.13 47.94 48.07 47.92 47.66 47.32 47.18 47.03 46.96 46.81 46.62 46.37 46.25 45.95 45.80 45.73 45.61 45.51 45.42 45.40 45.32 45.21 45.32 45.56 45.47 45.29 45.14 44.99 45.20 45.46 45.69 45.76 45.76 45.63 45.61 45.20 44.81 44.48 44.26 44.26 44.06 43.93 44.10 44.07 43.94 43.71 43.31 43.10
48.49 48.66 48.77 48.86 48.96 49.12 49.00 48.71 48.55 48.47 48.46 48.40 48.48 48.40 48.47 48.53 48.57 48.71 48.64 48.35 47.87 47.69 47.77 48.00 47.82 47.45 47.05 46.84 46.77 46.66 46.51 46.34 46.14 45.81 45.61 45.39 45.29 45.25 45.18 45.14 45.03 44.88 44.83 44.97 45.05 44.99 44.83 44.63 44.45 44.55 44.68 44.92 45.09 45.26 45.38 45.36 45.02 44.55 44.26 44.09 44.00 43.80 43.52 43.52 43.64 43.68 43.64 43.52 43.14
48.51 48.59 48.75 48.91 49.10 49.07 48.95 48.61 48.40 48.31 48.16 48.16 48.06 48.05 48.13 48.18 48.33 48.33 48.07 47.63 47.38 47.19 47.24 47.45 47.41 47.11 46.77 46.50 46.38 46.25 46.11 45.85 45.63 45.40 45.18 45.01 44.95 44.88 44.80 44.82 44.79 44.73 44.69 44.77 44.76 44.63 44.39 44.19 44.23 44.16 44.13 44.09 44.24 44.50 44.64 44.74 44.49 44.11 43.73 43.56 43.48 43.27 43.15 43.26 43.39 43.48 43.49 43.36 42.97
48.48 48.49 48.51 48.72 48.80 48.73 48.52 48.27 48.02 47.97 47.76 47.63 47.66 47.58 47.60 47.62 47.80 47.64 47.31 46.89 46.79 46.55 46.52 46.63 46.60 46.47 46.30 46.04 45.91 45.74 45.58 45.39 45.14 44.92 44.76 44.60 44.56 44.57 44.50 44.49 44.57 44.62 44.53 44.61 44.64 44.51 44.27 43.98 44.02 43.94 43.69 43.52 43.52 43.68 43.89 43.85 43.65 43.40 43.19 42.94 42.82 42.74 42.81 42.98 43.06 43.14 43.15 42.99 42.72
48.13 48.07 48.24 48.37 48.31 48.09 47.83 47.76 47.48 47.34 47.23 47.02 47.02 47.01 46.92 46.84 46.95 46.95 46.64 46.35 46.12 46.07 45.95 45.84 45.69 45.78 45.87 45.76 45.43 45.22 45.07 44.85 44.66 44.42 44.17 44.13 44.14 44.19 44.16 44.16 44.25 44.32 44.40 44.52 44.50 44.43 44.31 44.15 44.08 43.99 43.74 43.32 43.19 43.19 43.19 43.11 42.98 42.81 42.72 42.55 42.46 42.33 42.32 42.36 42.52 42.69 42.68 42.56 42.24
47.54 47.62 47.63 47.63 47.48 47.37 47.15 47.00 46.82 46.66 46.51 46.29 46.34 46.40 46.28 46.06 46.20 46.14 46.01 45.70 45.61 45.39 45.22 44.99 44.95 44.97 45.14 45.25 45.16 44.90 44.62 44.36 44.13 43.91 43.71 43.68 43.60 43.66 43.72 43.68 43.70 43.84 44.14 44.44 44.33 44.28 44.12 44.10 44.03 43.99 43.89 43.55 43.30 43.05 42.97 42.80 42.66 42.55 42.44 42.35 42.08 41.81 41.50 41.46 41.69 41.83 41.97 42.01 41.69
46.84 46.93 46.92 46.86 46.63 46.56 46.50 46.36 46.21 46.02 45.81 45.66 45.74 45.66 45.55 45.55 45.51 45.54 45.44 45.21 44.92 44.66 44.53 44.58 44.57 44.46 44.48 44.56 44.64 44.46 44.23 43.91 43.75 43.57 43.43 43.27 43.37 43.34 43.35 43.38 43.49 43.57 43.77 43.99 43.95 43.94 43.76 43.80 43.72 43.74 43.72 43.62 43.36 43.06 42.90 42.66 42.38 42.10 42.01 41.87 41.43 40.89 40.55 40.91 41.18 41.12 41.13 41.04 41.04
46.15 46.19 46.16 46.07 45.92 45.81 45.85 45.80 45.59 45.47 45.33 45.21 45.21 45.18 45.16 45.14 44.98 44.84 44.88 44.94 44.62 44.28 44.06 44.04 44.21 44.14 44.04 43.87 43.99 43.99 43.88 43.53 43.34 43.36 43.30 43.29 43.39 43.31 43.23 43.29 43.37 43.47 43.32 43.02 43.39 43.53 43.36 43.40 43.39 43.40 43.32 43.20 43.05 42.82 42.55 42.23 41.91 41.90 41.86 41.68 41.01 40.38 40.21 40.47 40.67 40.68 40.50 40.17 40.39
45.43 45.46 45.44 45.36 45.36 45.31 45.28 45.28 45.04 44.90 44.80 44.79 44.79 44.76 44.76 44.72 44.55 44.41 44.27 44.41 44.39 44.21 43.95 43.69 43.72 43.72 43.60 43.53 43.47 43.56 43.53 43.36 43.14 43.17 43.15 43.31 43.28 43.25 43.17 43.22 43.25 43.20 42.65 41.33 42.44 43.02 43.19 43.06 43.02 42.85 42.69 42.50 42.15 41.81 41.57 41.57 41.55 41.60 41.55 41.32 40.74 40.20 39.84 39.93 40.13 40.17 39.99 39.74 39.86
44.85 44.77 44.79 44.79 44.83 44.79 44.75 44.67 44.53 44.47 44.43 44.39 44.38 44.27 44.26 44.26 44.29 44.02 43.83 43.79 44.10 44.04 43.86 43.56 43.35 43.26 43.12 43.19 43.04 43.00 43.10 43.12 42.94 42.80 42.69 42.85 42.85 42.87 42.88 42.95 43.03 42.92 42.12 39.95 41.25 42.24 42.82 42.86 42.69 42.65 42.21 41.07 40.19 40.12 40.34 40.65 40.64 40.68 40.63 40.45 40.04 39.81 39.63 39.48 39.25 39.12 38.86 38.72 39.16
44.39 44.39 44.44 44.51 44.50 44.41 44.34 44.25 44.24 44.20 44.13 44.04 43.98 43.97 43.98 43.93 43.88 43.72 43.61 43.80 43.91 43.82 43.57 43.32 43.04 42.87 42.70 42.79 42.62 42.50 42.54 42.78 42.59 42.40 42.34 42.37 42.41 42.55 42.75 42.74 42.73 42.62 42.12 40.43 40.67 41.64 42.70 42.81 42.80 41.96 40.33 38.20 37.56 37.92 38.68 39.21 39.43 39.44 39.44 39.47 39.42 39.11 38.92 38.61 38.37 38.22 38.17 38.43 38.70
44.03 44.23 44.31 44.34 44.23 44.20 44.07 43.98 43.94 43.88 43.70 43.60 43.66 43.59 43.59 43.53 43.43 43.44 43.60 43.76 43.69 43.50 43.14 42.92 42.84 42.61 42.55 42.48 42.27 42.20 42.20 42.26 42.19 42.11 42.00 42.01 42.16 42.32 42.52 42.59 42.45 42.52 42.28 41.39 39.74 40.12 41.13 41.41 40.82 38.89 36.94 36.15 35.61 36.15 37.22 37.90 38.45 38.69 38.88 38.89 38.93 38.28 37.41 36.77 37.39 37.69 37.86 37.95 38.03
43.93 44.02 44.12 44.17 44.14 43.97 43.84 43.69 43.57 43.41 43.26 43.15 43.19 43.19 43.10 43.00 43.11 43.17 43.37 43.37 43.18 42.99 42.79 42.63 42.56 42.50 42.40 42.38 42.18 41.99 41.75 41.67 41.66 41.68 41.71 41.71 41.77 41.90 42.15 42.15 42.24 42.32 42.21 41.69 39.64 38.11 37.38 37.62 36.48 35.35 34.96 35.36 34.82 35.50 36.71 37.61 38.15 38.43 38.62 38.68 38.45 37.35 36.08 35.17 35.89 36.30 36.61 36.92 37.32
43.85 43.85 43.80 43.80 43.68 43.47 43.36 43.20 43.01 42.84 42.63 42.62 42.66 42.70 42.68 42.67 42.76 42.81 42.79 42.73 42.57 42.46 42.34 42.22 42.22 42.19 42.24 42.10 41.98 41.62 41.35 41.04 40.91 40.94 41.07 41.22 41.31 41.44 41.58 41.60 41.54 41.51 41.44 41.45 41.04 40.07 39.17 39.07 37.37 36.39 35.77 35.06 35.68 36.98 38.17 38.65 38.85 38.83 38.59 38.43 38.01 37.23 36.22 35.36 35.33 35.50 35.86 36.28 36.94
43.78 43.55 43.42 43.23 43.06 42.77 42.69 42.46 42.31 42.18 42.13 42.24 42.35 42.38 42.37 42.32 42.32 42.33 42.18 42.06 42.02 41.95 41.88 41.77 41.79 41.80 41.69 41.66 41.49 41.25 41.06 40.75 40.55 40.39 40.42 40.57 40.76 40.93 40.95 40.92 40.89 40.54 40.31 40.84 42.35 43.11 43.15 42.61 41.27 39.69 38.01 36.58 37.79 38.91 39.68 39.78 39.72 39.34 38.89 38.46 38.13 37.81 37.50 37.32 37.36 37.35 37.25 36.93 37.06
43.39 43.15 42.94 42.65 42.35 42.23 42.03 41.87 41.91 41.90 41.93 42.04 42.13 42.07 42.01 42.07 41.98 41.95 41.73 41.54 41.45 41.54 41.50 41.44 41.29 41.37 41.37 41.13 40.94 40.77 40.61 40.42 40.35 40.17 40.05 40.02 40.09 40.21 40.34 40.30 40.66 39.03 37.52 39.05 41.78 43.10 43.60 43.68 43.39 41.93 39.90 37.88 38.94 39.62 39.88 39.86 39.77 39.64 39.37 39.22 38.90 38.45 38.09 37.99 38.56 38.89 39.01 38.91 38.65
42.77 42.57 42.41 42.15 41.91 41.66 41.62 41.70 41.69 41.68 41.71 41.78 41.74 41.69 41.63 41.73 41.64 41.41 41.19 41.00 41.03 41.12 41.17 41.06 40.99 41.05 41.03 40.68 40.38 40.11 39.96 39.92 39.97 39.94 39.79 39.67 39.56 39.64 39.68 39.75 40.09 38.56 37.52 39.39 42.14 43.27 43.56 43.64 43.71 42.90 41.13 38.01 39.23 39.63 39.55 39.46 39.72 39.78 39.78 39.76 39.32 38.75 38.16 37.88 38.59 39.04 39.38 39.49 39.86
41.95 41.83 41.71 41.63 41.42 41.34 41.39 41.58 41.45 41.40 41.38 41.36 41.36 41.37 41.38 41.37 41.13 40.89 40.66 40.62 40.62 40.59 40.56 40.48 40.67 40.69 40.41 39.99 39.69 39.54 39.51 39.55 39.51 39.56 39.56 39.48 39.48 39.32 39.36 39.48 39.19 38.72 39.10 41.31 42.61 43.10 43.30 43.38 43.33 43.09 42.45 41.20 40.68 40.34 39.96 39.39 39.26 39.20 39.18 39.33 39.12 38.89 38.57 38.46 38.82 39.14 39.30 39.43 39.73
41.37 41.37 41.33 41.21 41.21 41.30 41.34 41.39 41.26 41.16 41.17 41.20 41.20 41.18 41.11 40.88 40.64 40.44 40.32 40.20 40.13 39.94 39.82 39.86 40.12 39.88 39.58 39.20 39.20 39.17 39.25 39.21 39.21 39.25 39.24 39.16 39.09 39.09 39.09 39.13 39.12 39.57 40.77 42.52 42.67 42.80 42.88 42.88 42.89 42.85 42.57 42.20 40.68 39.72 39.27 39.17 38.72 38.60 38.57 38.68 38.70 38.68 38.67 38.61 38.82 39.01 39.20 39.43 39.53
41.59 41.67 41.70 41.31 41.28 41.25 41.22 41.22 41.14 41.15 41.13 41.09 40.97 40.79 40.52 40.33 40.14 39.98 39.82 39.67 39.48 39.44 39.52 39.63 39.44 39.09 38.86 38.67 38.74 38.74 38.67 38.67 38.94 38.97 38.82 38.62 38.43 38.51 38.74 38.98 38.73 39.04 39.98 41.91 42.32 42.44 42.40 42.44 42.48 42.40 42.40 42.03 40.81 39.69 38.99 38.98 38.93 38.76 38.62 38.49 38.45 38.44 38.43 38.58 38.69 38.76 38.85 38.93 39.05
42.30 42.45 42.38 41.64 41.37 41.13 41.10 41.18 41.17 41.11 40.94 40.74 40.54 40.28 39.97 39.71 39.52 39.44 39.36 39.21 39.21 39.40 39.52 39.44 38.94 38.63 38.51 38.51 38.44 38.32 38.21 38.25 38.44 38.40 38.28 38.12 38.24 38.32 38.32 38.52 38.49 38.54 39.34 41.51 41.91 42.11 42.07 42.11 42.07 41.99 41.99 41.91 40.70 39.50 38.53 38.24 38.25 38.19 38.11 38.03 38.05 38.16 38.18 38.15 38.06 38.22 38.39 38.48 38.46
42.65 42.68 42.39 41.52 41.08 40.97 40.98 41.02 40.93 40.79 40.54 40.29 40.03 39.70 39.44 39.29 39.21 39.25 39.25 39.25 39.09 39.01 38.90 38.63 38.25 38.05 37.98 38.02 37.98 37.94 37.83 37.87 37.91 37.94 38.01 38.04 37.96 37.93 38.01 38.20 38.27 38.42 39.26 41.02 41.46 41.58 41.67 41.67 41.63 41.59 41.59 41.43 40.49 39.31 38.36 37.80 37.83 37.66 37.66 37.54 37.59 37.82 37.86 37.77 37.85 38.11 38.17 38.17 37.95
42.59 42.49 42.12 41.28 40.93 40.78 40.82 40.69 40.56 40.36 40.07 39.84 39.54 39.24 39.05 39.01 39.01 39.01 39.05 39.05 38.82 38.47 38.17 37.87 37.67 37.45 37.34 37.35 37.38 37.35 37.38 37.57 37.68 37.90 38.09 38.09 37.86 37.75 37.68 37.71 37.79 38.58 39.71 40.86 41.10 41.14 41.22 41.22 41.14 41.18 41.18 41.10 39.97 38.89 38.16 37.53 37.35 37.22 37.12 37.19 37.41 37.68 37.91 37.92 37.91 37.82 37.77 37.70 37.72
41.82 41.58 41.25 40.89 40.66 40.54 40.38 40.22 40.09 39.86 39.59 39.24 39.05 38.94 38.81 38.67 38.58 38.43 38.44 38.54 38.40 38.25 38.02 37.79 37.61 37.42 37.31 37.31 37.16 37.08 37.15 37.42 37.49 37.56 37.60 37.64 37.49 37.34 37.19 37.02 37.29 38.46 39.71 40.54 40.74 40.82 40.82 40.78 40.78 40.78 40.74 40.65 39.21 38.13 37.37 37.10 36.88 36.63 36.53 36.55 37.18 37.64 37.77 37.58 37.30 37.09 37.06 37.19 37.48
41.30 40.86 40.54 40.34 40.11 39.99 39.83 39.67 39.55 39.28 38.94 38.66 38.54 38.49 38.52 38.39 38.15 38.01 38.07 38.32 38.29 38.02 37.79 37.68 37.65 37.53 37.46 37.38 37.30 37.19 37.04 37.01 36.97 37.01 37.16 37.15 37.00 36.81 36.62 36.49 36.79 38.08 39.40 40.03 40.23 40.34 40.42 40.46 40.42 40.37 40.09 39.64 38.11 37.25 36.75 36.62 36.43 36.34 36.35 36.51 36.94 37.39 37.68 37.61 37.20 36.87 36.70 36.82 37.16
40.77 40.34 39.95 39.67 39.56 39.40 39.25 39.13 38.94 38.70 38.46 38.14 38.05 38.12 38.08 38.06 37.95 37.97 38.09 38.28 37.98 37.60 37.30 37.23 37.27 37.15 37.04 36.89 36.88 37.00 36.89 36.63 36.60 36.68 36.72 36.79 36.55 36.17 35.87 35.95 36.28 37.44 38.70 39.51 39.71 39.83 39.94 40.02 39.97 39.96 39.56 38.55 37.28 36.56 36.32 36.22 36.24 36.34 36.57 36.77 36.95 37.15 37.43 37.62 37.60 37.12 36.57 36.37 36.73
40.36 39.95 39.50 39.16 39.01 38.90 38.78 38.71 38.43 38.16 37.92 37.79 37.70 37.73 37.73 37.67 37.72 37.89 38.05 38.05 37.40 37.02 36.75 36.80 36.62 36.54 36.42 36.42 36.42 36.62 36.70 36.77 36.51 36.30 36.31 36.38 36.08 35.73 35.42 35.39 35.69 36.61 37.77 38.88 39.19 39.46 39.50 39.65 39.68 39.59 38.94 37.58 36.63 36.20 36.07 36.22 36.34 36.56 36.69 36.91 37.02 37.28 37.55 37.74 37.91 37.52 36.78 35.89 36.24
40.13 39.78 39.42 38.97 38.67 38.55 38.40 38.28 37.93 37.77 37.53 37.52 37.56 37.60 37.64 37.60 37.53 37.62 37.82 37.82 37.01 36.55 36.36 36.29 36.22 36.22 36.22 36.40 36.37 36.42 36.54 36.66 36.51 36.19 35.90 35.80 35.71 35.48 35.20 35.02 35.26 35.90 36.86 38.16 38.78 39.05 39.25 39.28 39.43 39.30 38.53 36.99 36.35 35.99 36.00 36.05 36.28 36.52 36.79 36.90 37.14 37.46 37.82 38.13 38.40 38.57 38.20 36.89 38.20
39.99 39.65 39.22 38.78 38.44 38.25 38.09 37.86 37.70 37.51 37.46 37.45 37.52 37.61 37.62 37.50 37.38 37.50 37.70 37.70 37.12 36.59 36.24 36.05 35.95 36.03 36.29 36.52 36.23 36.09 36.10 36.18 36.25 36.04 35.75 35.28 35.53 35.69 35.59 35.02 35.00 35.47 36.43 37.69 38.34 38.73 38.84 39.07 39.15 39.10 38.56 37.23 36.42 35.96 35.90 35.98 36.16 36.40 36.63 36.79 37.10 37.48 37.97 38.35 38.66 38.95 39.07 38.92 40.25
39.91 39.52 39.13 38.62 38.29 38.02 37.83 37.57 37.49 37.55 37.61 37.56 37.45 37.49 37.46 37.50 37.54 37.66 37.74 37.63 37.21 36.87 36.49 36.04 35.97 36.12 36.24 36.39 35.90 35.49 35.35 35.47 35.65 35.66 35.59 35.38 35.59 36.07 36.15 35.21 34.98 35.28 36.14 37.31 38.03 38.33 38.48 38.75 38.86 38.93 38.48 37.13 36.48 36.25 36.16 36.28 36.25 36.33 36.37 36.55 36.78 37.08 37.52 38.03 38.39 38.74 38.96 39.16 40.04
39.72 39.33 38.94 38.50 38.28 37.95 37.72 37.46 37.49 37.63 37.77 37.71 37.52 37.57 37.69 37.81 37.70 37.63 37.48 37.22 37.00 36.70 36.39 36.05 35.94 35.95 35.99 36.05 35.52 35.07 34.74 34.77 35.01 35.21 35.36 35.47 35.49 35.90 35.92 35.24 34.98 35.10 35.62 36.56 37.45 38.02 38.24 38.47 38.66 38.77 38.48 37.23 36.72 36.55 36.65 36.71 36.29 36.05 36.12 36.38 36.56 36.83 37.11 37.40 37.92 38.16 38.34 38.38 38.83
MSLP
1020.15 1020.19 1020.23 1020.27 1020.35 1020.35 1020.35 1020.35 1020.35 1020.35 1020.31 1020.27 1020.15 1020.07 1020.03 1019.95 1019.87 1019.79 1019.75 1019.67 1019.59 1019.51 1019.43 1019.35 1019.27 1019.19 1019.07 1018.95 1018.91 1018.83 1018.75 1018.63 1018.59 1018.47 1018.39 1018.31 1018.19 1018.15 1018.07 1017.99 1017.99 1017.95 1017.91 1017.87 1017.83 1017.79 1017.75 1017.75 1017.71 1017.63 1017.59 1017.51 1017.47 1017.39 1017.35 1017.31 1017.23 1017.19 1017.19 1017.07 1017.03 1016.99 1016.95 1016.91 1016.91 1016.87 1016.87 1016.87 1016.87
1020.07 1020.11 1020.15 1020.19 1020.27 1020.31 1020.35 1020.35 1020.31 1020.27 1020.23 1020.19 1020.11 1020.07 1020.03 1019.99 1019.91 1019.83 1019.75 1019.67 1019.59 1019.51 1019.43 1019.35 1019.19 1019.11 1019.03 1018.91 1018.83 1018.75 1018.67 1018.59 1018.51 1018.43 1018.35 1018.23 1018.15 1018.07 1017.99 1017.91 1017.83 1017.75 1017.75 1017.67 1017.63 1017.63 1017.55 1017.47 1017.47 1017.39 1017.35 1017.31 1017.23 1017.19 1017.11 1017.03 1017.03 1016.95 1016.87 1016.75 1016.75 1016.71 1016.67 1016.63 1016.55 1016.51 1016.51 1016.51 1016.51
1020.07 1020.11 1020.15 1020.19 1020.19 1020.19 1020.19 1020.19 1020.19 1020.15 1020.15 1020.11 1020.11 1020.07 1020.07 1019.99 1019.91 1019.87 1019.75 1019.67 1019.59 1019.47 1019.39 1019.31 1019.15 1019.03 1018.95 1018.87 1018.75 1018.67 1018.63 1018.55 1018.47 1018.35 1018.23 1018.15 1018.07 1017.95 1017.87 1017.75 1017.67 1017.63 1017.55 1017.47 1017.43 1017.35 1017.35 1017.27 1017.23 1017.19 1017.15 1017.03 1016.99 1016.91 1016.87 1016.75 1016.75 1016.67 1016.59 1016.47 1016.47 1016.43 1016.35 1016.31 1016.19 1016.19 1016.23 1016.19 1016.19
1020.11 1020.15 1020.15 1020.19 1020.19 1020.15 1020.15 1020.15 1020.11 1020.11 1020.07 1020.07 1020.07 1020.07 1020.03 1019.99 1019.91 1019.83 1019.75 1019.67 1019.55 1019.43 1019.35 1019.19 1019.03 1018.95 1018.87 1018.79 1018.71 1018.63 1018.55 1018.47 1018.35 1018.23 1018.15 1018.03 1017.91 1017.79 1017.71 1017.63 1017.51 1017.43 1017.35 1017.31 1017.19 1017.11 1017.07 1017.03 1017.03 1016.99 1016.91 1016.83 1016.75 1016.67 1016.55 1016.47 1016.47 1016.39 1016.31 1016.19 1016.19 1016.11 1016.03 1015.91 1015.91 1015.91 1015.87 1015.79 1015.79
1020.15 1020.19 1020.19 1020.19 1020.19 1020.19 1020.19 1020.19 1020.15 1020.11 1020.11 1020.11 1020.07 1020.03 1019.95 1019.91 1019.87 1019.75 1019.67 1019.55 1019.43 1019.31 1019.19 1019.11 1019.03 1018.91 1018.79 1018.75 1018.63 1018.51 1018.43 1018.35 1018.23 1018.15 1018.07 1017.91 1017.75 1017.67 1017.59 1017.47 1017.35 1017.27 1017.19 1017.07 1017.03 1016.91 1016.83 1016.83 1016.75 1016.71 1016.63 1016.63 1016.55 1016.43 1016.31 1016.27 1016.19 1016.11 1016.03 1015.91 1015.87 1015.79 1015.71 1015.63 1015.59 1015.55 1015.51 1015.47 1015.47
1020.19 1020.19 1020.23 1020.23 1020.23 1020.23 1020.19 1020.19 1020.19 1020.15 1020.11 1020.07 1020.03 1019.95 1019.83 1019.75 1019.67 1019.63 1019.51 1019.43 1019.27 1019.15 1019.07 1019.03 1018.91 1018.83 1018.75 1018.63 1018.51 1018.39 1018.35 1018.23 1018.15 1018.07 1017.91 1017.79 1017.67 1017.55 1017.43 1017.35 1017.19 1017.07 1017.03 1016.91 1016.79 1016.75 1016.67 1016.63 1016.55 1016.47 1016.39 1016.35 1016.27 1016.15 1016.07 1016.07 1015.95 1015.87 1015.75 1015.63 1015.55 1015.47 1015.47 1015.35 1015.27 1015.23 1015.19 1015.11 1015.11
1020.23 1020.27 1020.23 1020.23 1020.23 1020.23 1020.19 1020.19 1020.19 1020.15 1020.07 1019.99 1019.91 1019.79 1019.71 1019.63 1019.51 1019.43 1019.35 1019.23 1019.15 1019.03 1018.99 1018.91 1018.79 1018.71 1018.59 1018.47 1018.39 1018.31 1018.19 1018.11 1018.03 1017.91 1017.79 1017.67 1017.55 1017.39 1017.27 1017.15 1017.03 1016.95 1016.83 1016.75 1016.63 1016.55 1016.47 1016.47 1016.35 1016.23 1016.11 1016.07 1015.99 1015.87 1015.79 1015.79 1015.75 1015.63 1015.51 1015.39 1015.27 1015.23 1015.19 1015.07 1015.03 1014.99 1014.95 1014.87 1014.79
1020.27 1020.23 1020.23 1020.23 1020.19 1020.19 1020.19 1020.15 1020.15 1020.07 1020.03 1019.91 1019.83 1019.71 1019.63 1019.51 1019.39 1019.31 1019.19 1019.15 1019.03 1018.91 1018.83 1018.75 1018.63 1018.59 1018.47 1018.39 1018.31 1018.19 1018.07 1017.99 1017.91 1017.79 1017.67 1017.59 1017.43 1017.31 1017.19 1017.03 1016.91 1016.79 1016.71 1016.63 1016.51 1016.43 1016.35 1016.27 1016.15 1016.03 1015.91 1015.83 1015.71 1015.59 1015.51 1015.51 1015.47 1015.39 1015.31 1015.19 1015.03 1014.99 1014.95 1014.91 1014.83 1014.79 1014.75 1014.63 1014.59
1020.23 1020.19 1020.19 1020.19 1020.15 1020.15 1020.11 1020.07 1020.07 1019.99 1019.91 1019.79 1019.67 1019.59 1019.47 1019.35 1019.27 1019.19 1019.07 1018.99 1018.87 1018.75 1018.67 1018.63 1018.51 1018.43 1018.35 1018.31 1018.19 1018.07 1017.99 1017.91 1017.75 1017.67 1017.55 1017.43 1017.31 1017.19 1017.03 1016.91 1016.79 1016.71 1016.59 1016.47 1016.39 1016.31 1016.19 1016.11 1015.99 1015.83 1015.67 1015.59 1015.47 1015.35 1015.23 1015.27 1015.23 1015.19 1015.07 1014.99 1014.87 1014.75 1014.67 1014.63 1014.63 1014.59 1014.51 1014.47 1014.43
1020.19 1020.19 1020.15 1020.11 1020.07 1020.03 1020.03 1019.99 1019.91 1019.87 1019.75 1019.63 1019.51 1019.39 1019.31 1019.19 1019.15 1019.03 1018.91 1018.79 1018.75 1018.63 1018.59 1018.47 1018.39 1018.35 1018.23 1018.15 1018.07 1017.99 1017.91 1017.75 1017.63 1017.51 1017.43 1017.31 1017.19 1017.03 1016.91 1016.79 1016.71 1016.59 1016.47 1016.35 1016.31 1016.19 1016.07 1015.99 1015.83 1015.67 1015.47 1015.39 1015.27 1015.15 1015.07 1015.03 1015.03 1014.95 1014.83 1014.75 1014.67 1014.59 1014.47 1014.39 1014.39 1014.35 1014.27 1014.23 1014.19
1020.11 1020.07 1020.07 1020.03 1019.95 1019.91 1019.91 1019.83 1019.75 1019.67 1019.59 1019.47 1019.35 1019.23 1019.19 1019.07 1018.99 1018.87 1018.75 1018.71 1018.63 1018.51 1018.47 1018.39 1018.31 1018.23 1018.15 1018.07 1017.99 1017.91 1017.79 1017.67 1017.55 1017.43 1017.31 1017.19 1017.03 1016.91 1016.83 1016.71 1016.59 1016.47 1016.35 1016.27 1016.19 1016.15 1016.07 1015.91 1015.71 1015.55 1015.39 1015.27 1015.15 1015.03 1014.95 1014.91 1014.87 1014.75 1014.63 1014.55 1014.47 1014.43 1014.31 1014.19 1014.19 1014.11 1014.03 1013.95 1013.91
1020.03 1019.99 1019.95 1019.91 1019.87 1019.83 1019.75 1019.71 1019.63 1019.55 1019.47 1019.35 1019.23 1019.15 1019.03 1018.91 1018.87 1018.75 1018.67 1018.63 1018.51 1018.43 1018.35 1018.27 1018.19 1018.15 1018.07 1017.99 1017.91 1017.79 1017.67 1017.59 1017.47 1017.35 1017.19 1017.03 1016.91 1016.79 1016.67 1016.55 1016.47 1016.35 1016.23 1016.15 1016.07 1016.03 1015.91 1015.75 1015.63 1015.43 1015.31 1015.19 1015.07 1014.99 1014.87 1014.79 1014.75 1014.63 1014.51 1014.39 1014.35 1014.27 1014.19 1014.03 1014.03 1013.95 1013.87 1013.75 1013.75
1019.91 1019.91 1019.87 1019.79 1019.75 1019.71 1019.67 1019.63 1019.51 1019.47 1019.35 1019.23 1019.15 1019.03 1018.91 1018.83 1018.75 1018.67 1018.63 1018.51 1018.43 1018.35 1018.23 1018.19 1018.19 1018.11 1017.99 1017.91 1017.75 1017.67 1017.59 1017.47 1017.35 1017.19 1017.03 1016.91 1016.75 1016.63 1016.51 1016.39 1016.31 1016.19 1016.07 1015.99 1015.95 1015.91 1015.75 1015.63 1015.47 1015.35 1015.19 1015.03 1014.99 1014.91 1014.75 1014.71 1014.63 1014.51 1014.39 1014.27 1014.19 1014.11 1013.99 1013.91 1013.87 1013.83 1013.75 1013.63 1013.55
1019.87 1019.83 1019.75 1019.67 1019.63 1019.63 1019.55 1019.47 1019.43 1019.35 1019.23 1019.15 1019.07 1018.99 1018.87 1018.75 1018.71 1018.63 1018.55 1018.47 1018.39 1018.31 1018.23 1018.19 1018.11 1018.07 1017.95 1017.79 1017.71 1017.63 1017.47 1017.35 1017.23 1017.07 1016.91 1016.79 1016.67 1016.55 1016.43 1016.27 1016.19 1016.07 1015.95 1015.87 1015.79 1015.71 1015.63 1015.47 1015.35 1015.23 1015.11 1014.95 1014.83 1014.75 1014.67 1014.63 1014.47 1014.35 1014.27 1014.15 1013.99 1013.91 1013.79 1013.71 1013.67 1013.63 1013.63 1013.47 1013.35
1019.75 1019.71 1019.67 1019.63 1019.59 1019.55 1019.47 1019.43 1019.35 1019.27 1019.19 1019.07 1019.03 1018.95 1018.91 1018.79 1018.67 1018.63 1018.55 1018.47 1018.39 1018.31 1018.23 1018.15 1018.07 1017.95 1017.87 1017.75 1017.67 1017.55 1017.39 1017.31 1017.15 1016.99 1016.79 1016.67 1016.51 1016.43 1016.31 1016.15 1016.03 1015.91 1015.79 1015.75 1015.63 1015.55 1015.47 1015.35 1015.19 1015.11 1015.03 1014.87 1014.71 1014.63 1014.51 1014.47 1014.35 1014.23 1014.15 1014.03 1013.91 1013.75 1013.67 1013.59 1013.55 1013.51 1013.47 1013.35 1013.23
1019.75 1019.63 1019.59 1019.55 1019.47 1019.47 1019.43 1019.35 1019.31 1019.23 1019.15 1019.03 1018.99 1018.91 1018.87 1018.75 1018.67 1018.63 1018.55 1018.47 1018.35 1018.27 1018.19 1018.07 1017.99 1017.91 1017.75 1017.67 1017.59 1017.47 1017.31 1017.19 1017.03 1016.83 1016.67 1016.51 1016.39 1016.27 1016.15 1016.03 1015.91 1015.75 1015.67 1015.59 1015.47 1015.35 1015.27 1015.19 1015.03 1014.95 1014.87 1014.75 1014.59 1014.47 1014.35 1014.27 1014.19 1014.11 1013.99 1013.91 1013.83 1013.71 1013.59 1013.47 1013.47 1013.35 1013.27 1013.19 1013.03
1019.67 1019.63 1019.59 1019.51 1019.47 1019.39 1019.39 1019.35 1019.31 1019.23 1019.15 1019.07 1018.99 1018.91 1018.83 1018.75 1018.63 1018.59 1018.51 1018.43 1018.31 1018.19 1018.07 1017.99 1017.91 1017.75 1017.63 1017.51 1017.43 1017.35 1017.19 1017.03 1016.87 1016.71 1016.55 1016.43 1016.27 1016.15 1016.03 1015.87 1015.75 1015.67 1015.55 1015.47 1015.35 1015.19 1015.07 1014.95 1014.87 1014.75 1014.63 1014.51 1014.43 1014.31 1014.19 1014.11 1014.03 1013.91 1013.83 1013.75 1013.67 1013.59 1013.47 1013.35 1013.31 1013.19 1013.07 1012.99 1012.87
1019.63 1019.59 1019.51 1019.47 1019.43 1019.39 1019.35 1019.35 1019.27 1019.23 1019.15 1019.03 1018.95 1018.87 1018.75 1018.71 1018.63 1018.47 1018.39 1018.35 1018.23 1018.11 1017.99 1017.83 1017.75 1017.63 1017.51 1017.35 1017.27 1017.19 1017.03 1016.87 1016.71 1016.55 1016.43 1016.27 1016.15 1015.99 1015.87 1015.71 1015.59 1015.47 1015.35 1015.31 1015.19 1014.99 1014.87 1014.75 1014.63 1014.51 1014.39 1014.27 1014.19 1014.07 1013.99 1013.91 1013.83 1013.71 1013.63 1013.55 1013.47 1013.39 1013.31 1013.19 1013.07 1013.03 1012.91 1012.79 1012.67
1019.63 1019.55 1019.51 1019.47 1019.43 1019.39 1019.35 1019.31 1019.23 1019.19 1019.07 1018.95 1018.91 1018.79 1018.71 1018.63 1018.51 1018.43 1018.31 1018.19 1018.11 1018.03 1017.87 1017.71 1017.59 1017.47 1017.39 1017.23 1017.11 1016.99 1016.87 1016.75 1016.55 1016.35 1016.19 1016.07 1015.95 1015.79 1015.63 1015.51 1015.35 1015.19 1015.15 1015.07 1014.95 1014.75 1014.63 1014.47 1014.35 1014.23 1014.11 1014.03 1013.91 1013.83 1013.75 1013.71 1013.63 1013.47 1013.39 1013.35 1013.23 1013.15 1013.03 1012.95 1012.91 1012.79 1012.75 1012.67 1012.55
1019.63 1019.55 1019.51 1019.47 1019.47 1019.39 1019.35 1019.27 1019.19 1019.07 1018.99 1018.91 1018.79 1018.71 1018.63 1018.51 1018.43 1018.35 1018.19 1018.07 1017.95 1017.87 1017.75 1017.63 1017.47 1017.35 1017.19 1017.07 1016.95 1016.83 1016.67 1016.55 1016.39 1016.19 1015.99 1015.87 1015.75 1015.59 1015.43 1015.27 1015.07 1014.95 1014.87 1014.83 1014.71 1014.55 1014.39 1014.23 1014.11 1013.99 1013.87 1013.79 1013.71 1013.63 1013.55 1013.47 1013.39 1013.31 1013.19 1013.07 1012.99 1012.91 1012.79 1012.71 1012.63 1012.59 1012.51 1012.47 1012.43
1019.63 1019.63 1019.55 1019.51 1019.47 1019.39 1019.31 1019.19 1019.15 1019.03 1018.95 1018.83 1018.75 1018.63 1018.51 1018.43 1018.35 1018.19 1018.07 1017.91 1017.83 1017.75 1017.63 1017.47 1017.35 1017.19 1017.07 1016.91 1016.79 1016.63 1016.47 1016.35 1016.19 1016.03 1015.83 1015.67 1015.51 1015.35 1015.19 1015.03 1014.83 1014.63 1014.51 1014.47 1014.39 1014.27 1014.11 1013.95 1013.83 1013.75 1013.67 1013.63 1013.55 1013.47 1013.39 1013.27 1013.19 1013.07 1012.99 1012.87 1012.75 1012.63 1012.51 1012.47 1012.35 1012.31 1012.23 1012.19 1012.15
1019.67 1019.63 1019.59 1019.51 1019.47 1019.35 1019.31 1019.19 1019.11 1019.03 1018.91 1018.75 1018.67 1018.55 1018.43 1018.35 1018.19 1018.07 1017.95 1017.83 1017.75 1017.63 1017.47 1017.35 1017.19 1017.03 1016.91 1016.75 1016.63 1016.47 1016.31 1016.19 1016.03 1015.83 1015.63 1015.47 1015.23 1015.07 1014.91 1014.75 1014.51 1014.35 1014.23 1014.15 1014.07 1013.99 1013.87 1013.75 1013.63 1013.55 1013.51 1013.47 1013.35 1013.31 1013.23 1013.11 1012.99 1012.87 1012.75 1012.59 1012.43 1012.35 1012.23 1012.15 1012.07 1012.03 1011.91 1011.83 1011.79
1019.71 1019.63 1019.59 1019.51 1019.43 1019.35 1019.27 1019.19 1019.03 1018.95 1018.83 1018.67 1018.59 1018.47 1018.35 1018.19 1018.07 1017.95 1017.83 1017.75 1017.59 1017.47 1017.31 1017.15 1016.99 1016.87 1016.75 1016.59 1016.47 1016.27 1016.07 1015.91 1015.75 1015.55 1015.35 1015.19 1014.99 1014.79 1014.63 1014.47 1014.31 1014.15 1013.99 1013.91 1013.79 1013.75 1013.63 1013.55 1013.43 1013.35 1013.35 1013.27 1013.19 1013.07 1012.99 1012.91 1012.79 1012.63 1012.47 1012.23 1012.07 1011.95 1011.87 1011.75 1011.67 1011.63 1011.51 1011.47 1011.43
1019.71 1019.63 1019.59 1019.47 1019.39 1019.31 1019.19 1019.15 1019.03 1018.91 1018.75 1018.63 1018.47 1018.35 1018.23 1018.07 1017.95 1017.83 1017.67 1017.55 1017.43 1017.31 1017.15 1016.99 1016.83 1016.67 1016.51 1016.35 1016.23 1016.07 1015.91 1015.67 1015.47 1015.23 1015.03 1014.91 1014.75 1014.51 1014.35 1014.19 1014.07 1013.91 1013.75 1013.63 1013.55 1013.47 1013.43 1013.31 1013.19 1013.11 1013.03 1013.03 1012.91 1012.83 1012.75 1012.63 1012.47 1012.31 1012.07 1011.87 1011.71 1011.55 1011.43 1011.35 1011.23 1011.19 1011.11 1011.03 1010.99
1019.71 1019.63 1019.51 1019.47 1019.35 1019.27 1019.19 1019.07 1018.95 1018.83 1018.71 1018.55 1018.39 1018.27 1018.15 1017.99 1017.83 1017.67 1017.55 1017.35 1017.23 1017.07 1016.91 1016.75 1016.63 1016.47 1016.35 1016.15 1015.99 1015.83 1015.63 1015.47 1015.19 1014.99 1014.79 1014.63 1014.47 1014.31 1014.19 1013.99 1013.79 1013.63 1013.51 1013.47 1013.31 1013.15 1013.03 1012.91 1012.87 1012.75 1012.71 1012.67 1012.59 1012.47 1012.27 1012.07 1011.91 1011.75 1011.63 1011.47 1011.31 1011.15 1010.99 1010.83 1010.75 1010.71 1010.67 1010.63 1010.55
1019.67 1019.59 1019.51 1019.47 1019.35 1019.23 1019.15 1019.03 1018.87 1018.75 1018.63 1018.47 1018.35 1018.19 1017.99 1017.83 1017.67 1017.51 1017.35 1017.19 1016.99 1016.83 1016.71 1016.55 1016.39 1016.23 1016.07 1015.91 1015.71 1015.51 1015.35 1015.19 1014.99 1014.75 1014.59 1014.35 1014.19 1014.07 1013.95 1013.79 1013.63 1013.47 1013.43 1013.27 1013.07 1012.91 1012.79 1012.71 1012.55 1012.47 1012.39 1012.35 1012.23 1012.07 1011.91 1011.71 1011.55 1011.43 1011.31 1011.11 1010.99 1010.87 1010.71 1010.51 1010.35 1010.19 1010.15 1010.11 1010.07
1019.63 1019.55 1019.47 1019.39 1019.31 1019.19 1019.03 1018.91 1018.79 1018.63 1018.47 1018.31 1018.15 1017.99 1017.83 1017.67 1017.51 1017.35 1017.19 1016.99 1016.83 1016.63 1016.51 1016.39 1016.23 1016.07 1015.87 1015.63 1015.47 1015.27 1015.07 1014.91 1014.75 1014.63 1014.43 1014.23 1014.03 1013.87 1013.71 1013.51 1013.39 1013.31 1013.19 1013.03 1012.87 1012.71 1012.55 1012.43 1012.31 1012.19 1012.11 1012.11 1011.99 1011.83 1011.63 1011.43 1011.27 1011.15 1011.03 1010.87 1010.71 1010.59 1010.43 1010.23 1010.07 1009.87 1009.71 1009.63 1009.51
1019.59 1019.47 1019.39 1019.31 1019.19 1019.03 1018.91 1018.79 1018.63 1018.47 1018.27 1018.11 1017.95 1017.79 1017.63 1017.47 1017.35 1017.19 1016.99 1016.83 1016.63 1016.47 1016.35 1016.19 1016.07 1015.87 1015.67 1015.47 1015.27 1015.07 1014.91 1014.75 1014.59 1014.39 1014.19 1014.03 1013.87 1013.63 1013.47 1013.27 1013.11 1013.03 1012.91 1012.75 1012.55 1012.39 1012.27 1012.15 1011.99 1011.91 1011.83 1011.75 1011.67 1011.55 1011.39 1011.23 1011.03 1010.87 1010.75 1010.59 1010.39 1010.23 1010.07 1009.91 1009.75 1009.59 1009.43 1009.27 1009.15
1019.47 1019.39 1019.27 1019.15 1019.03 1018.91 1018.75 1018.63 1018.43 1018.27 1018.11 1017.95 1017.75 1017.63 1017.47 1017.31 1017.15 1016.99 1016.79 1016.63 1016.47 1016.35 1016.19 1015.99 1015.79 1015.67 1015.51 1015.31 1015.07 1014.91 1014.75 1014.59 1014.39 1014.19 1013.99 1013.75 1013.59 1013.39 1013.19 1013.03 1012.87 1012.71 1012.55 1012.47 1012.27 1012.15 1011.99 1011.91 1011.79 1011.67 1011.59 1011.51 1011.43 1011.31 1011.15 1010.99 1010.79 1010.63 1010.47 1010.31 1010.11 1009.99 1009.83 1009.67 1009.51 1009.35 1009.19 1009.03 1008.87
1019.35 1019.23 1019.15 1018.99 1018.83 1018.67 1018.55 1018.39 1018.23 1018.07 1017.91 1017.75 1017.59 1017.43 1017.27 1017.07 1016.91 1016.75 1016.63 1016.47 1016.31 1016.15 1016.03 1015.87 1015.71 1015.47 1015.31 1015.11 1014.91 1014.71 1014.51 1014.31 1014.11 1013.95 1013.75 1013.51 1013.31 1013.11 1012.95 1012.79 1012.63 1012.47 1012.35 1012.23 1012.07 1011.91 1011.79 1011.67 1011.55 1011.43 1011.35 1011.19 1011.19 1011.07 1010.91 1010.75 1010.59 1010.39 1010.19 1009.99 1009.83 1009.67 1009.55 1009.43 1009.31 1009.15 1009.03 1008.91 1008.75
1019.19 1019.07 1018.95 1018.79 1018.63 1018.47 1018.35 1018.19 1018.07 1017.91 1017.71 1017.55 1017.35 1017.19 1017.03 1016.91 1016.75 1016.59 1016.47 1016.35 1016.19 1016.03 1015.87 1015.71 1015.51 1015.31 1015.07 1014.91 1014.75 1014.51 1014.27 1014.07 1013.87 1013.71 1013.51 1013.35 1013.07 1012.87 1012.71 1012.55 1012.43 1012.31 1012.19 1012.07 1011.91 1011.71 1011.55 1011.43 1011.31 1011.19 1011.07 1010.99 1010.91 1010.79 1010.67 1010.51 1010.35 1010.19 1009.99 1009.75 1009.63 1009.47 1009.35 1009.23 1009.11 1009.03 1008.91 1008.79 1008.67
1018.95 1018.87 1018.75 1018.59 1018.43 1018.27 1018.15 1018.03 1017.87 1017.67 1017.47 1017.35 1017.19 1017.03 1016.87 1016.71 1016.59 1016.47 1016.35 1016.19 1016.07 1015.87 1015.63 1015.47 1015.31 1015.03 1014.83 1014.67 1014.47 1014.19 1014.03 1013.83 1013.63 1013.47 1013.31 1013.15 1012.91 1012.71 1012.51 1012.35 1012.19 1012.07 1011.91 1011.79 1011.63 1011.47 1011.35 1011.19 1011.07 1010.95 1010.87 1010.75 1010.71 1010.59 1010.43 1010.31 1010.15 1009.91 1009.75 1009.55 1009.35 1009.27 1009.19 1009.11 1008.99 1008.83 1008.75 1008.63 1008.55
1018.75 1018.63 1018.51 1018.39 1018.19 1018.07 1017.91 1017.79 1017.63 1017.47 1017.35 1017.15 1016.99 1016.87 1016.71 1016.55 1016.43 1016.31 1016.19 1016.07 1015.91 1015.67 1015.47 1015.27 1015.03 1014.83 1014.63 1014.39 1014.19 1013.95 1013.75 1013.63 1013.47 1013.27 1013.07 1012.91 1012.75 1012.55 1012.35 1012.15 1011.99 1011.87 1011.71 1011.55 1011.43 1011.31 1011.19 1011.03 1010.91 1010.75 1010.67 1010.59 1010.47 1010.35 1010.19 1010.07 1009.91 1009.75 1009.55 1009.39 1009.23 1009.11 1009.03 1008.91 1008.79 1008.67 1008.59 1008.51 1008.39
1018.59 1018.43 1018.31 1018.19 1018.03 1017.87 1017.75 1017.59 1017.47 1017.35 1017.15 1016.99 1016.83 1016.71 1016.59 1016.47 1016.31 1016.15 1015.99 1015.87 1015.71 1015.47 1015.27 1015.03 1014.91 1014.67 1014.43 1014.23 1014.03 1013.79 1013.59 1013.35 1013.23 1013.07 1012.91 1012.75 1012.51 1012.35 1012.19 1011.99 1011.83 1011.67 1011.51 1011.35 1011.23 1011.11 1010.99 1010.91 1010.75 1010.63 1010.47 1010.39 1010.31 1010.19 1010.03 1009.87 1009.71 1009.55 1009.39 1009.23 1009.07 1008.95 1008.87 1008.79 1008.67 1008.55 1008.47 1008.35 1008.27
1018.35 1018.23 1018.07 1017.95 1017.83 1017.67 1017.55 1017.39 1017.27 1017.11 1016.99 1016.79 1016.63 1016.51 1016.43 1016.31 1016.19 1016.03 1015.79 1015.63 1015.47 1015.27 1015.07 1014.87 1014.71 1014.51 1014.27 1014.07 1013.91 1013.71 1013.47 1013.23 1013.03 1012.87 1012.71 1012.55 1012.39 1012.19 1011.95 1011.75 1011.63 1011.47 1011.35 1011.19 1011.03 1010.91 1010.83 1010.71 1010.59 1010.47 1010.35 1010.23 1010.15 1009.99 1009.83 1009.67 1009.51 1009.35 1009.19 1009.03 1008.91 1008.75 1008.67 1008.59 1008.47 1008.35 1008.19 1008.11 1007.95
1018.19 1018.07 1017.91 1017.75 1017.63 1017.51 1017.39 1017.23 1017.11 1016.95 1016.79 1016.63 1016.47 1016.35 1016.19 1016.07 1015.95 1015.79 1015.63 1015.47 1015.27 1015.03 1014.87 1014.67 1014.47 1014.27 1014.07 1013.87 1013.67 1013.47 1013.35 1013.07 1012.87 1012.67 1012.51 1012.39 1012.23 1012.03 1011.75 1011.51 1011.39 1011.27 1011.15 1011.03 1010.91 1010.75 1010.67 1010.55 1010.43 1010.31 1010.19 1010.07 1009.95 1009.79 1009.63 1009.47 1009.31 1009.11 1008.95 1008.83 1008.67 1008.55 1008.43 1008.27 1008.15 1007.99 1007.87 1007.71 1007.55
1017.95 1017.87 1017.75 1017.59 1017.47 1017.35 1017.19 1017.07 1016.91 1016.79 1016.63 1016.47 1016.35 1016.19 1016.07 1015.91 1015.75 1015.63 1015.47 1015.35 1015.07 1014.83 1014.63 1014.47 1014.31 1014.07 1013.91 1013.71 1013.47 1013.27 1013.11 1012.95 1012.75 1012.51 1012.35 1012.19 1012.07 1011.87 1011.63 1011.35 1011.15 1011.03 1010.95 1010.83 1010.75 1010.63 1010.51 1010.43 1010.31 1010.19 1010.07 1009.91 1009.75 1009.63 1009.47 1009.31 1009.15 1008.95 1008.75 1008.59 1008.39 1008.27 1008.11 1007.99 1007.75 1007.59 1007.47 1007.35 1007.19
1017.83 1017.75 1017.63 1017.47 1017.35 1017.19 1017.03 1016.91 1016.75 1016.63 1016.47 1016.31 1016.15 1016.03 1015.91 1015.75 1015.55 1015.39 1015.27 1015.19 1014.95 1014.67 1014.43 1014.23 1014.07 1013.91 1013.67 1013.51 1013.31 1013.07 1012.91 1012.75 1012.63 1012.39 1012.19 1011.95 1011.87 1011.71 1011.47 1011.19 1010.95 1010.83 1010.79 1010.71 1010.59 1010.47 1010.35 1010.23 1010.11 1009.99 1009.87 1009.75 1009.59 1009.43 1009.31 1009.11 1008.91 1008.75 1008.51 1008.35 1008.15 1007.95 1007.83 1007.71 1007.47 1007.23 1007.03 1006.95 1006.79
1017.67 1017.63 1017.47 1017.35 1017.19 1017.03 1016.91 1016.75 1016.63 1016.43 1016.27 1016.11 1015.95 1015.83 1015.71 1015.59 1015.39 1015.19 1015.07 1014.99 1014.79 1014.55 1014.31 1014.03 1013.83 1013.63 1013.47 1013.35 1013.11 1012.87 1012.63 1012.51 1012.43 1012.31 1012.07 1011.79 1011.63 1011.55 1011.35 1011.07 1010.79 1010.63 1010.59 1010.51 1010.39 1010.27 1010.11 1010.03 1009.91 1009.75 1009.67 1009.55 1009.39 1009.23 1009.07 1008.91 1008.71 1008.47 1008.27 1008.07 1007.91 1007.71 1007.55 1007.43 1007.19 1006.95 1006.75 1006.51 1006.35
1017.47 1017.43 1017.35 1017.19 1017.03 1016.91 1016.75 1016.59 1016.43 1016.31 1016.15 1015.99 1015.83 1015.63 1015.51 1015.39 1015.19 1015.03 1014.91 1014.75 1014.55 1014.35 1014.15 1013.87 1013.63 1013.47 1013.31 1013.11 1012.91 1012.67 1012.43 1012.27 1012.19 1012.07 1011.91 1011.67 1011.47 1011.35 1011.19 1010.95 1010.67 1010.47 1010.35 1010.27 1010.19 1010.07 1009.91 1009.79 1009.67 1009.55 1009.47 1009.35 1009.19 1009.03 1008.91 1008.67 1008.47 1008.23 1008.03 1007.83 1007.63 1007.47 1007.23 1007.03 1006.83 1006.63 1006.39 1006.15 1005.91
1017.35 1017.31 1017.19 1017.03 1016.91 1016.75 1016.63 1016.39 1016.23 1016.11 1015.99 1015.87 1015.71 1015.51 1015.35 1015.19 1015.03 1014.87 1014.71 1014.47 1014.35 1014.19 1013.95 1013.71 1013.47 1013.27 1013.15 1012.99 1012.79 1012.55 1012.31 1012.07 1011.91 1011.79 1011.67 1011.51 1011.31 1011.11 1010.95 1010.75 1010.47 1010.27 1010.11 1010.07 1009.95 1009.83 1009.71 1009.59 1009.47 1009.35 1009.23 1009.11 1008.95 1008.83 1008.63 1008.47 1008.23 1008.03 1007.75 1007.59 1007.43 1007.19 1006.95 1006.71 1006.47 1006.27 1006.07 1005.83 1005.63
Wind_Speed
3 3 2 2 2 2 3 3 3 4 4 4 5 5 5 5 5 5 5 5 5 5 5 6 6 6 8 9 10 11 11 11 11 12 12 13 12 12 12 12 12 12 12 12 12 12 11 11 10 9 7 7 8 9 9 9 10 11 11 12 11 11 12 14 14 15 16 16 13
4 4 3 3 3 3 3 3 3 4 4 4 4 5 5 5 5 5 5 5 5 5 5 5 6 7 9 10 10 10 10 11 11 12 12 12 12 12 12 12 12 12 13 13 13 11 10 11 10 9 7 7 8 9 10 10 10 11 13 14 12 11 11 12 13 14 15 16 14
4 4 4 4 4 3 3 3 4 4 5 4 4 4 5 5 5 5 5 5 6 6 6 6 6 7 9 10 9 9 9 10 11 11 11 11 12 12 12 12 13 13 13 13 12 11 11 11 10 9 8 7 8 9 10 10 11 12 13 14 12 10 9 10 11 12 12 11 13
5 4 4 4 5 5 5 4 5 5 5 4 5 5 5 4 4 5 5 6 7 7 6 6 7 7 8 8 9 10 10 10 11 11 11 11 12 12 13 12 13 13 13 13 13 13 13 12 10 8 8 9 11 10 10 9 11 11 11 11 10 10 10 9 10 10 9 10 11
5 4 4 4 5 5 5 5 5 6 5 4 4 4 4 4 5 5 5 6 6 6 7 8 8 8 8 9 10 11 11 11 11 10 10 11 11 12 12 13 13 13 13 13 13 13 13 13 10 8 8 10 9 9 10 11 12 11 10 9 9 9 9 9 9 9 9 9 9
4 4 4 4 5 5 4 4 5 6 5 5 5 6 6 5 5 5 6 6 7 8 9 9 9 9 9 10 10 11 11 10 10 10 11 11 11 12 12 13 13 13 12 12 13 13 13 12 9 8 8 9 9 10 11 13 12 12 11 10 9 9 9 10 9 9 9 10 11
5 5 4 4 5 5 5 5 5 6 6 6 7 8 8 7 7 8 9 8 8 8 8 8 8 9 9 10 10 10 11 10 11 11 12 12 12 12 13 13 13 13 13 12 13 12 12 11 9 8 8 9 8 10 12 13 12 12 11 11 10 9 9 10 9 9 10 13 14
4 5 4 5 5 5 5 6 6 6 6 6 7 9 10 10 10 10 10 9 9 8 8 7 9 10 11 11 11 11 11 12 12 12 12 12 13 13 13 13 13 13 13 12 12 12 11 10 9 8 9 8 8 9 11 13 13 13 13 13 11 10 9 8 8 8 10 13 14
4 4 4 5 5 5 5 6 7 7 7 8 9 10 10 11 11 11 10 9 9 8 8 8 10 11 12 12 12 12 12 12 12 12 12 12 13 13 13 13 13 13 13 12 12 12 12 10 9 9 9 8 9 9 11 13 13 14 14 13 12 12 11 10 10 10 11 12 13
5 5 5 5 5 6 6 7 7 8 9 9 10 11 11 11 11 10 10 8 9 9 9 10 11 12 12 12 12 12 12 11 12 12 13 13 13 14 14 13 13 13 13 12 12 12 12 10 10 10 10 10 11 12 12 13 13 14 13 11 12 13 14 13 13 13 13 12 13
6 6 6 6 6 6 7 7 8 8 9 9 10 11 11 11 11 10 10 9 10 11 11 11 11 12 12 12 12 12 12 11 11 12 13 13 14 14 14 13 14 14 14 13 12 11 10 9 11 12 12 12 12 12 13 13 14 14 14 13 13 15 16 16 15 14 13 13 13
6 6 6 7 7 7 7 8 8 8 9 10 10 11 11 10 11 11 11 11 12 12 12 11 11 12 12 11 11 11 12 12 13 13 13 14 14 14 14 14 14 14 14 14 12 10 9 10 11 13 14 14 12 11 11 12 13 14 15 15 15 15 16 16 15 14 13 13 13
7 7 7 7 8 8 8 8 8 8 9 10 10 10 10 10 11 11 11 12 12 11 11 11 11 11 11 11 11 11 12 12 13 13 14 14 14 14 15 14 14 14 14 13 12 11 10 11 12 13 14 14 12 12 12 13 13 14 15 16 16 16 16 16 14 14 14 15 14
8 8 8 8 8 8 8 8 7 8 8 10 10 10 10 10 10 11 11 11 11 11 11 11 10 10 11 12 12 12 13 13 14 14 15 15 15 15 15 14 14 14 13 12 12 12 12 12 12 13 13 14 14 14 14 14 14 15 15 16 17 17 17 15 14 14 14 15 15
8 8 8 8 8 8 8 8 7 7 8 9 9 9 9 9 10 10 10 11 11 11 10 10 10 10 11 12 13 14 14 14 15 15 15 15 15 15 15 14 14 14 13 11 12 12 13 13 12 12 13 14 15 15 15 15 15 15 15 15 16 16 16 15 14 14 14 15 15
9 9 9 9 9 8 8 8 7 7 8 9 9 10 10 9 9 10 10 11 10 10 10 11 11 11 11 12 13 14 14 14 14 15 15 15 15 15 15 15 15 14 13 12 12 13 13 13 13 12 13 13 14 15 15 15 14 14 14 15 15 15 15 15 15 15 16 16 16
9 9 9 9 9 9 9 8 8 8 9 10 10 10 10 9 9 9 10 11 10 10 11 12 12 11 11 12 12 12 13 13 13 14 14 14 15 15 16 16 16 15 14 12 13 14 14 15 14 13 13 13 13 14 14 14 13 13 14 14 14 15 15 16 17 17 18 18 18
9 9 9 9 10 10 10 9 9 9 10 11 11 10 10 10 10 10 10 11 11 12 13 14 13 12 12 13 12 12 11 12 13 13 14 14 15 15 16 16 16 15 14 12 13 14 15 16 16 15 14 13 13 12 12 12 12 13 14 14 14 14 14 15 17 17 18 18 18
10 10 10 10 10 10 10 10 10 10 11 11 11 10 11 11 11 11 11 12 12 13 13 14 13 13 13 14 13 13 12 12 14 14 14 14 14 15 15 16 16 15 14 12 12 14 15 16 17 16 15 14 12 12 11 12 12 13 13 14 14 14 14 15 15 16 16 17 17
10 10 10 10 10 10 11 11 11 11 11 11 11 12 12 12 12 12 13 13 13 13 13 14 14 14 14 14 15 14 13 12 14 15 15 15 15 15 15 15 16 16 15 12 12 13 15 16 16 16 15 13 12 12 12 13 13 13 14 14 14 14 14 14 14 14 14 15 15
10 10 10 10 11 11 11 11 11 12 12 12 12 12 13 13 13 13 13 13 13 14 14 14 14 15 15 15 15 15 14 13 14 15 16 15 15 15 15 16 16 16 14 12 11 12 14 15 15 14 13 11 11 12 12 13 14 14 14 14 14 15 15 15 14 14 14 15 15
10 10 10 11 11 11 11 11 12 12 12 12 12 13 13 13 13 13 14 13 13 14 14 14 15 15 15 15 15 15 15 14 14 15 15 15 15 15 15 15 16 15 14 12 11 12 12 13 13 12 11 11 11 12 12 13 14 15 16 16 16 16 15 15 15 15 15 15 15
10 10 10 10 11 11 12 12 12 12 13 13 13 13 14 14 14 14 14 14 13 14 14 14 14 14 15 15 15 16 16 16 16 16 16 16 16 16 16 15 14 14 13 12 10 10 10 10 10 10 10 10 11 12 13 13 14 14 15 17 17 16 16 15 15 15 15 15 15
11 10 10 9 11 11 12 12 12 13 13 13 13 14 14 14 14 14 14 14 14 15 14 13 13 14 15 15 16 16 17 17 18 18 18 17 17 17 16 15 14 13 12 10 10 10 10 9 8 8 8 8 9 10 11 12 13 14 15 16 16 16 15 15 15 15 15 16 16
11 11 11 11 11 12 12 12 13 13 13 14 14 14 14 15 14 14 14 15 15 15 15 15 15 15 15 15 16 16 16 17 18 18 18 18 17 17 16 14 13 12 10 9 13 17 18 17 13 10 8 8 9 11 13 15 15 15 15 14 14 14 14 14 15 15 15 15 15
10 11 11 11 12 12 13 13 13 13 14 14 14 14 14 15 14 14 15 15 16 16 16 16 15 15 15 14 15 16 16 16 16 17 17 17 18 17 16 14 13 11 9 10 16 20 22 23 22 19 14 10 10 12 13 15 16 16 16 15 15 14 14 15 16 16 15 14 14
10 10 11 11 12 12 13 13 13 13 14 14 14 15 15 14 14 14 15 16 16 16 16 15 15 15 15 14 15 16 16 15 15 16 17 17 18 18 17 15 13 10 9 12 17 21 23 24 25 24 19 12 11 11 12 13 14 15 15 16 16 16 16 16 17 18 17 16 15
11 11 11 12 12 12 13 13 13 14 14 15 15 15 15 15 15 16 16 16 16 16 15 14 13 13 12 12 14 16 17 17 16 16 16 17 18 18 18 16 13 11 12 16 20 23 24 25 26 25 24 19 14 12 12 13 14 14 14 15 15 15 16 16 16 16 16 16 15
11 11 12 12 12 13 13 13 14 14 15 15 15 15 15 15 16 16 16 16 16 16 14 12 12 11 11 13 15 16 17 18 17 16 16 17 18 18 17 17 15 15 17 21 24 25 26 26 26 26 26 24 17 13 11 12 13 13 13 13 13 14 15 15 15 15 15 16 16
11 11 11 12 12 13 13 13 14 15 15 14 15 15 16 16 16 16 16 17 17 16 14 13 13 14 15 16 16 16 17 17 16 16 16 17 18 18 18 18 16 15 17 21 24 25 26 26 26 26 26 26 21 16 12 11 12 13 13 13 14 15 16 16 16 16 16 15 15
10 10 11 12 13 13 14 14 14 15 15 15 15 16 16 16 16 16 16 16 16 16 16 16 17 18 18 18 17 17 18 17 17 16 17 17 18 19 19 19 18 17 17 21 24 25 26 26 26 26 26 26 21 16 13 12 14 14 14 13 15 16 17 16 16 16 17 17 16
10 10 11 12 13 14 14 14 15 15 16 16 17 17 17 17 16 16 16 16 16 17 17 18 18 19 19 19 19 19 19 18 18 17 17 17 18 19 19 19 18 18 18 22 24 26 26 26 26 27 27 26 22 18 15 15 15 15 15 16 17 17 16 14 14 15 17 17 16
11 11 11 13 13 14 14 15 15 16 16 17 17 17 17 17 16 16 16 16 16 17 17 18 18 19 19 19 19 19 19 19 18 19 19 19 19 20 20 19 17 18 20 23 25 26 26 27 27 27 27 27 22 19 17 16 15 14 14 15 16 16 16 16 15 15 15 16 15
11 12 12 13 14 14 15 16 16 16 17 17 17 17 16 16 16 16 16 15 15 16 17 17 18 18 18 18 19 19 19 18 18 18 19 19 20 20 20 18 15 16 20 25 26 27 27 27 27 27 27 26 21 17 16 17 15 15 15 15 16 16 15 15 14 14 14 14 15
12 13 13 14 14 15 16 17 17 17 17 17 17 17 16 16 16 16 17 17 17 17 17 17 17 17 18 18 18 18 19 19 19 19 19 19 20 20 20 19 18 19 23 26 27 27 27 27 27 27 27 24 18 15 14 16 16 16 16 16 16 16 16 15 14 14 14 15 16
13 13 14 15 16 16 17 17 17 18 17 17 17 17 17 17 17 16 17 17 18 18 18 18 18 18 18 18 18 18 18 19 20 20 20 19 20 20 21 21 20 22 24 26 27 27 27 27 27 27 25 21 15 13 13 13 13 14 15 15 15 16 16 16 15 15 14 14 16
14 14 15 16 17 17 17 17 18 18 18 18 17 17 17 17 17 17 16 16 17 18 18 17 18 18 18 18 18 18 18 18 19 20 20 20 20 20 21 21 21 21 23 25 26 26 27 26 27 26 24 18 14 13 12 11 11 12 13 14 15 15 16 15 15 14 14 13 14
15 15 16 17 17 17 18 18 18 18 18 18 18 17 17 17 16 16 16 16 16 17 18 18 18 18 18 18 18 18 19 19 19 20 21 21 20 20 21 22 21 21 21 23 25 26 26 26 26 25 22 17 15 13 11 10 10 11 12 12 12 13 14 13 12 12 13 13 15
15 16 16 17 17 18 18 18 18 18 18 18 18 18 17 17 16 15 15 15 16 17 17 18 18 18 18 19 18 19 19 19 20 20 20 20 20 20 21 22 21 20 21 22 24 25 25 25 25 25 23 18 15 12 10 9 10 11 11 11 11 12 13 12 11 11 12 13 17
16 16 17 17 18 18 18 19 19 18 18 17 18 18 18 17 16 16 16 15 16 16 17 17 19 19 19 19 19 19 20 20 19 19 20 20 21 21 22 21 21 21 21 22 24 24 24 24 24 24 22 17 14 11 10 9 10 11 11 10 10 10 11 11 11 11 11 12 16
16 16 17 17 17 18 18 19 19 18 18 17 18 18 17 16 16 16 16 15 16 16 16 16 18 19 20 19 18 18 19 20 20 20 20 21 21 21 21 20 20 20 20 20 22 23 23 24 24 24 23 18 14 11 10 9 10 11 11 11 10 10 10 11 11 10 11 11 13
Wind_Direction
295 292 288 290 293 292 292 292 291 290 290 292 293 295 297 296 295 295 295 295 294 294 295 294 294 294 295 296 297 297 297 297 296 294 293 291 289 286 282 277 273 268 264 262 260 257 255 252 251 249 247 244 244 244 243 242 241 242 242 242 242 242 241 241 240 239 238 237 236
306 304 301 296 286 281 280 282 283 284 285 287 291 295 297 297 295 295 295 294 293 293 292 291 291 292 294 296 298 299 298 298 298 297 295 293 291 289 286 282 278 274 270 267 264 261 257 254 252 250 247 244 244 244 242 240 240 241 242 242 242 242 241 241 240 240 239 239 237
313 311 308 303 296 292 290 288 289 291 293 295 296 297 296 294 292 291 291 290 289 289 288 287 288 290 293 296 297 297 296 296 296 296 295 293 291 289 287 284 281 277 274 270 266 263 259 256 254 252 249 246 244 244 243 242 240 241 242 242 242 241 240 241 240 239 239 238 236
316 316 315 312 310 309 307 305 302 302 302 302 299 295 291 287 284 283 283 284 285 285 284 285 288 291 293 294 295 294 293 293 293 293 291 290 289 288 286 284 282 279 277 273 270 266 262 258 255 253 250 249 248 247 245 243 241 241 241 240 240 240 240 240 238 237 236 236 235
321 322 322 318 317 315 313 309 306 305 304 302 296 290 285 279 277 277 278 280 281 283 285 289 291 292 292 291 292 292 292 292 291 290 289 288 287 286 285 283 281 280 278 275 272 269 266 262 258 254 251 250 248 247 246 245 245 244 243 241 239 239 238 238 237 236 235 234 232
325 323 321 317 316 313 310 305 303 302 300 296 290 286 283 279 278 279 280 282 284 287 289 290 289 289 289 290 290 291 292 292 291 290 288 288 287 286 285 283 282 281 279 276 274 272 270 266 262 256 252 251 250 248 248 247 247 247 246 245 242 240 239 238 237 235 234 234 233
320 317 315 313 311 308 304 302 301 298 295 290 286 285 285 285 285 286 286 288 288 288 288 287 287 287 288 290 291 292 292 292 291 290 289 288 287 286 286 285 284 282 280 278 276 274 271 268 264 259 255 251 250 248 247 246 246 247 247 247 244 242 240 240 238 237 236 236 234
308 306 306 307 304 301 298 297 296 293 291 286 284 284 285 286 287 288 288 287 286 285 284 284 285 286 287 289 290 290 291 291 290 290 289 288 288 287 287 286 285 284 282 280 279 277 274 270 266 261 258 254 252 250 248 246 246 247 248 248 248 246 243 241 239 238 238 238 236
297 297 298 297 293 291 291 291 289 287 285 283 283 284 285 286 286 287 286 285 283 284 284 284 285 286 286 287 288 289 289 290 289 289 289 288 288 288 288 287 287 286 284 283 281 279 277 274 268 264 260 256 254 252 251 249 249 248 248 249 251 250 248 246 242 241 240 239 238
294 294 292 290 288 287 287 286 283 282 281 281 283 284 285 286 286 285 285 284 285 285 285 284 286 287 288 288 288 289 288 288 288 288 288 287 287 287 287 287 286 286 285 284 283 282 280 277 272 268 264 261 259 258 257 254 253 252 251 251 252 253 253 251 248 246 243 241 239
293 291 290 288 288 286 285 284 283 282 282 282 285 286 288 288 287 287 288 289 288 287 287 287 289 290 290 290 289 289 288 288 287 287 287 286 286 286 286 285 285 285 284 284 283 282 280 277 274 271 269 267 265 263 262 260 258 257 256 256 256 256 256 255 254 252 249 247 244
293 291 289 286 286 285 285 285 285 286 286 287 289 291 291 292 293 293 294 293 291 291 290 292 292 292 292 290 289 288 288 287 287 287 287 287 286 286 285 284 284 283 283 282 282 280 277 274 273 272 271 270 269 267 266 264 263 261 261 260 260 259 259 258 257 256 255 253 251
296 293 291 289 289 289 289 289 289 290 291 292 294 295 296 297 298 298 297 296 295 295 295 296 295 294 292 290 289 289 289 289 289 288 288 287 286 286 285 284 283 282 282 281 279 277 275 273 272 272 271 271 270 269 268 268 266 265 264 264 262 261 260 260 258 258 257 257 256
298 297 296 296 296 295 294 294 294 294 294 296 298 299 300 300 301 301 300 299 298 298 299 298 296 294 292 292 292 291 291 291 290 289 288 287 287 286 285 284 283 282 281 279 277 276 274 273 272 271 271 271 270 270 269 269 268 267 266 265 265 264 263 262 261 260 259 258 258
301 302 302 303 302 301 299 299 297 297 297 298 300 302 303 302 302 302 301 300 300 299 298 297 295 294 293 293 293 293 292 291 290 290 289 288 287 287 286 285 285 283 282 280 278 276 274 273 271 270 270 270 270 270 269 268 268 267 266 266 266 266 266 265 265 263 262 261 260
305 306 307 307 306 304 303 302 301 300 300 300 302 302 302 301 301 301 300 299 299 297 296 295 294 294 294 293 293 292 292 291 290 289 289 289 289 288 288 287 287 286 284 282 280 278 275 274 272 270 269 268 268 268 268 267 266 265 265 264 264 265 265 266 266 265 264 263 262
308 309 310 309 308 307 305 304 302 301 300 300 300 300 299 298 298 298 297 297 296 295 294 293 293 293 293 292 291 291 291 290 289 288 288 288 288 288 288 287 286 285 284 281 279 277 276 275 273 272 270 268 267 267 266 266 265 264 263 263 263 263 263 263 264 264 265 264 263
311 312 312 311 310 309 307 305 303 300 298 298 297 296 296 295 295 295 294 293 293 292 292 292 292 291 291 291 290 289 288 288 287 287 286 286 286 286 286 285 284 283 281 278 276 275 275 274 274 273 271 269 267 266 265 264 264 263 263 263 263 262 261 261 262 263 264 264 264
313 314 314 313 312 310 308 305 302 300 298 297 296 295 294 294 294 293 292 292 291 291 291 292 292 291 290 290 289 288 287 287 286 286 285 285 284 283 283 282 282 281 279 275 273 273 273 273 274 273 273 271 269 267 266 265 265 265 265 265 265 264 262 261 261 261 262 262 263
315 315 315 314 312 309 307 304 302 300 299 297 296 296 294 294 293 292 292 291 292 292 291 291 291 290 290 289 289 288 288 286 286 286 285 284 283 282 281 281 280 279 278 273 270 270 271 272 273 273 272 270 269 268 267 267 267 267 268 268 267 266 265 264 262 261 259 259 260
316 316 314 312 310 307 305 303 302 300 299 298 297 296 295 294 294 293 292 292 293 292 291 290 290 289 289 289 289 289 288 286 286 285 285 284 282 281 280 279 279 278 276 272 269 269 269 270 271 271 270 268 267 266 267 268 268 268 268 268 268 267 266 265 263 261 259 257 256
315 314 312 310 307 305 304 303 302 301 299 298 297 296 296 295 295 294 294 294 293 292 291 289 289 289 289 289 288 288 287 286 284 283 283 282 281 280 279 279 278 278 277 274 270 269 269 269 269 268 267 267 266 265 265 266 267 268 268 268 267 267 265 263 261 259 257 256 254
313 311 310 307 306 305 304 303 302 301 299 298 298 297 297 296 296 295 295 294 293 291 290 289 289 288 288 288 287 287 286 285 283 282 281 281 280 280 280 279 279 278 277 275 271 268 267 267 266 263 261 261 262 262 263 263 264 265 266 266 266 264 262 259 257 255 254 253 251
310 309 308 306 306 305 304 303 302 301 300 299 299 298 298 297 297 296 295 294 292 291 290 289 288 288 288 287 286 285 284 284 283 283 282 281 281 282 282 282 280 279 277 275 272 270 268 269 266 262 257 253 254 257 259 260 260 261 262 262 262 261 259 256 253 252 251 250 250
307 307 307 306 305 304 303 302 301 300 299 299 298 298 297 296 296 295 294 293 291 290 290 289 288 288 287 286 285 283 283 282 283 283 283 284 283 283 284 283 281 280 278 275 275 275 276 277 276 274 269 263 262 263 266 267 268 268 268 266 265 265 264 263 260 256 253 250 248
306 306 305 304 303 302 301 301 300 298 298 297 297 296 295 295 294 293 293 292 291 290 290 290 289 288 287 286 285 284 283 282 283 284 285 285 285 285 284 282 281 279 276 274 276 277 279 280 280 280 278 274 273 274 276 278 278 278 277 276 275 274 273 272 271 269 264 258 251
305 303 301 300 300 299 299 298 297 296 296 295 295 295 294 294 293 293 292 291 291 290 290 290 289 288 288 286 286 285 285 285 285 285 285 285 285 285 284 282 280 277 274 273 276 278 279 281 282 282 282 280 278 277 279 280 280 280 279 278 277 276 275 274 275 275 274 271 265
300 299 297 297 296 296 295 296 295 295 295 295 295 295 294 293 292 292 291 291 291 292 292 291 290 290 289 288 288 287 287 287 287 286 285 284 283 283 283 282 281 278 276 277 279 281 283 284 285 286 287 286 284 282 280 281 281 280 279 278 277 276 276 275 276 277 277 277 275
294 294 293 293 293 293 294 294 294 294 294 295 295 294 293 292 292 292 292 292 293 293 293 293 293 292 290 289 289 289 288 287 286 286 285 284 283 283 283 283 283 282 282 284 285 286 287 288 288 289 289 288 287 285 283 282 281 280 279 278 277 277 277 278 278 279 280 280 281
289 289 289 289 290 291 292 292 292 293 294 294 294 294 293 293 293 293 294 295 295 295 294 295 294 293 291 290 290 289 288 287 286 286 285 285 286 286 286 286 286 286 286 287 288 288 289 289 289 289 289 289 288 286 284 282 281 280 279 278 277 277 278 279 280 280 281 283 284
284 283 284 286 288 289 290 291 292 293 294 294 294 294 294 294 294 295 295 296 296 296 295 294 293 291 290 290 289 289 288 288 288 288 288 288 288 288 288 288 288 288 287 288 288 289 289 290 291 291 291 292 291 289 286 284 282 281 280 279 279 279 280 281 281 282 283 283 284
282 282 283 285 287 289 290 291 293 293 294 295 295 296 295 295 295 295 296 296 296 296 296 295 293 292 292 291 291 290 290 290 291 290 290 290 290 290 290 290 290 289 289 289 290 291 292 292 293 293 293 294 293 291 288 286 284 283 281 280 280 280 280 280 281 282 283 284 285
284 284 284 286 288 290 291 293 294 295 296 296 296 296 296 296 296 296 296 296 296 295 295 295 294 294 294 294 293 293 292 292 291 291 291 291 291 291 291 291 290 290 291 292 292 293 294 294 295 295 295 296 295 293 291 289 287 285 284 283 282 282 282 282 282 283 284 285 286
286 286 287 288 290 292 294 296 297 297 297 297 297 297 297 296 297 296 296 296 295 295 295 295 294 294 294 294 294 294 293 293 292 292 292 292 292 292 292 292 291 291 292 293 293 294 295 296 296 297 297 298 297 294 292 290 288 286 284 283 283 283 283 284 283 282 282 282 282
289 290 292 293 295 296 297 298 299 299 298 298 297 297 297 296 296 296 297 297 297 296 295 295 294 294 293 293 293 292 293 293 293 293 293 293 293 293 292 292 291 291 292 293 294 295 297 298 298 299 299 299 297 294 292 290 288 285 283 282 282 282 283 282 281 278 276 274 273
293 295 297 298 298 299 299 299 299 299 299 298 297 297 297 297 297 297 297 298 297 296 296 295 295 294 294 294 293 293 293 294 294 294 294 294 294 293 293 292 292 292 294 295 296 297 298 299 299 299 299 298 296 293 291 289 287 285 283 282 281 281 280 280 278 274 271 267 266
298 300 300 300 300 300 300 300 299 299 298 298 298 298 298 298 298 298 298 299 298 297 296 296 295 295 295 295 294 293 293 294 294 294 294 294 293 293 293 293 293 293 295 296 297 298 299 299 298 299 298 297 295 293 291 289 286 284 282 281 280 279 279 279 277 274 269 264 261
301 301 301 300 300 299 300 300 299 299 299 299 299 299 299 299 298 298 298 298 297 297 297 296 295 295 295 295 294 294 293 293 294 294 294 294 294 293 293 294 294 294 295 297 297 298 298 298 298 298 298 296 295 293 291 287 284 282 281 281 280 280 279 279 277 275 271 265 263
301 301 300 299 299 299 300 299 299 299 299 299 299 299 299 299 298 298 298 298 296 296 296 296 296 295 295 296 295 295 294 294 293 294 294 294 294 294 294 294 294 294 295 296 297 297 297 298 298 298 298 296 294 292 288 285 282 280 279 280 280 281 280 279 277 275 272 269 269
301 300 300 300 300 300 300 299 299 299 299 300 300 300 300 299 298 298 297 296 296 296 296 296 296 296 296 297 296 296 295 295 294 293 293 293 294 294 294 293 293 294 295 295 296 297 298 298 298 298 298 295 292 289 285 281 280 280 281 281 281 282 281 279 277 275 273 273 274
300 300 300 300 300 300 300 300 300 300 300 299 300 299 299 299 298 298 298 297 297 297 297 296 297 297 297 297 296 295 295 295 294 294 293 294 294 294 293 293 293 294 294 296 297 298 299 299 298 297 296 293 289 286 283 281 283 284 285 286 285 284 282 281 279 278 277 277 276